TimeEST,TemperatureF,Dew PointF,Humidity,Sea Level PressureIn,VisibilityMPH,Wind Direction,Wind SpeedMPH,Gust SpeedMPH,PrecipitationIn,Events,Conditions,WindDirDegrees,DateUTC
12:15 AM,44.6,24.8,46,30.14,10.0,WSW,13.8,-,N/A,,Clear,250,2013-02-01 05:15:00
12:35 AM,44.6,24.8,46,30.14,10.0,West,11.5,-,N/A,,Clear,260,2013-02-01 05:35:00
12:55 AM,42.8,24.8,49,30.14,10.0,West,10.4,-,N/A,,Clear,260,2013-02-01 05:55:00
1:15 AM,42.8,24.8,49,30.13,10.0,West,10.4,-,N/A,,Clear,260,2013-02-01 06:15:00
1:35 AM,42.8,24.8,49,30.13,10.0,West,9.2,-,N/A,,Clear,260,2013-02-01 06:35:00
1:55 AM,42.8,24.8,49,30.12,10.0,West,9.2,-,N/A,,Clear,260,2013-02-01 06:55:00
2:15 AM,42.8,24.8,49,30.11,10.0,West,9.2,-,N/A,,Clear,260,2013-02-01 07:15:00
2:35 AM,42.8,24.8,49,30.12,10.0,West,10.4,-,N/A,,Clear,260,2013-02-01 07:35:00
2:55 AM,42.8,24.8,49,30.12,10.0,West,10.4,-,N/A,,Clear,260,2013-02-01 07:55:00
3:15 AM,42.8,24.8,49,30.12,10.0,West,10.4,-,N/A,,Clear,260,2013-02-01 08:15:00
3:35 AM,42.8,24.8,49,30.12,10.0,West,10.4,-,N/A,,Clear,260,2013-02-01 08:35:00
3:55 AM,42.8,24.8,49,30.12,10.0,WSW,11.5,-,N/A,,Clear,250,2013-02-01 08:55:00
4:15 AM,41.0,26.6,57,30.12,10.0,WSW,10.4,-,N/A,,Clear,240,2013-02-01 09:15:00
4:35 AM,39.2,26.6,61,30.11,10.0,WSW,10.4,-,N/A,,Clear,240,2013-02-01 09:35:00
4:55 AM,39.2,26.6,61,30.11,10.0,WSW,9.2,-,N/A,,Clear,240,2013-02-01 09:55:00
5:15 AM,39.2,26.6,61,30.10,10.0,WSW,10.4,-,N/A,,Clear,240,2013-02-01 10:15:00
5:35 AM,39.2,26.6,61,30.11,10.0,WSW,9.2,-,N/A,,Clear,240,2013-02-01 10:35:00
5:50 AM,41.0,26.6,57,30.11,10.0,WSW,13.8,-,N/A,,Clear,250,2013-02-01 10:50:00
5:55 AM,41.0,26.6,57,30.10,10.0,WSW,10.4,-,N/A,,Clear,240,2013-02-01 10:55:00
6:45 AM,42.8,26.6,53,30.10,10.0,SW,13.8,-,N/A,,Clear,230,2013-02-01 11:45:00
7:45 AM,46.4,26.6,46,30.12,10.0,WSW,11.5,-,N/A,,Clear,240,2013-02-01 12:45:00
8:45 AM,46.4,26.6,46,30.12,10.0,WSW,11.5,-,N/A,,Clear,240,2013-02-01 13:45:00
9:45 AM,51.8,26.6,38,30.13,10.0,West,15.0,26.5,N/A,,Clear,260,2013-02-01 14:45:00
10:45 AM,55.4,30.2,38,30.14,10.0,West,19.6,28.8,N/A,,Clear,260,2013-02-01 15:45:00
11:00 AM,55.4,28.4,36,30.14,10.0,NW,20.7,28.8,N/A,,Clear,310,2013-02-01 16:00:00
11:45 AM,55.4,26.6,33,30.16,10.0,NW,21.9,32.2,N/A,,Clear,310,2013-02-01 16:45:00
12:45 PM,55.4,28.4,36,30.17,10.0,NW,17.3,28.8,N/A,,Scattered Clouds,320,2013-02-01 17:45:00
2:45 PM,51.8,17.6,26,30.20,10.0,NNW,17.3,23.0,N/A,,Partly Cloudy,330,2013-02-01 19:45:00
3:45 PM,50.0,6.8,17,30.23,10.0,NNW,17.3,28.8,N/A,,Clear,330,2013-02-01 20:45:00
4:50 PM,48.2,5.0,17,30.26,10.0,NNW,13.8,23.0,N/A,,Clear,340,2013-02-01 21:50:00
5:45 PM,44.6,5.0,20,30.28,10.0,North,13.8,-,N/A,,Clear,360,2013-02-01 22:45:00
6:45 PM,39.2,8.6,28,30.30,10.0,North,11.5,-,N/A,,Clear,360,2013-02-01 23:45:00
7:45 PM,37.4,12.2,36,30.33,10.0,NNE,6.9,-,N/A,,Clear,20,2013-02-02 00:45:00
8:45 PM,33.8,14.0,44,30.35,10.0,NNE,5.8,-,N/A,,Clear,20,2013-02-02 01:45:00
9:55 PM,33.8,12.2,41,30.36,10.0,NNE,9.2,-,N/A,,Clear,20,2013-02-02 02:55:00
11:15 PM,30.2,12.2,47,30.37,10.0,NNE,5.8,-,N/A,,Clear,20,2013-02-02 04:15:00
11:35 PM,30.2,12.2,47,30.38,10.0,North,5.8,-,N/A,,Clear,10,2013-02-02 04:35:00
11:55 PM,28.4,15.8,59,30.37,10.0,North,6.9,-,N/A,,Clear,10,2013-02-02 04:55:00